EW9495 Weather Reports


time (UTC)temp
F
wind
direction
speed
knots
gust
knots
rain 1hr
in
rain 24hr
in
rain mn
in
humidity
%
barometer
mb
20260906231515 0 215 1.7 5.2 0.00 0.44 0.28 1004.6
20260906230015 0 300 2.6 8.7 0.00 0.44 0.28 1004.7
20260906224517 0 317 3.5 9.6 0.00 0.44 0.28 1005.0
20260906223016 0 336 5.2 8.7 0.00 0.44 0.28 1005.0
20260906221519 0 338 5.2 10.4 0.00 0.44 0.28 1004.9
20260906220013 0 304 5.2 9.6 0.00 0.44 0.28 1005.0
20260906214512 0 252 2.6 7.8 0.00 0.44 0.28 1004.9
20260906213011 0 275 4.3 7.0 0.00 0.44 0.28 1004.8
20260906211511 0 21 0.0 6.1 0.00 0.44 0.28 1004.7
20260906210010 0 223 2.6 6.1 0.00 0.44 0.28 1004.7
20260906204506 0 321 1.7 6.1 0.00 0.44 0.28 1004.7
20260906203104 0 228 1.7 6.1 0.00 0.44 0.28 1004.6
20260906201556 0 297 3.5 6.1 0.00 0.44 0.28 1005.0
20260906200052 0 316 4.3 9.6 0.00 0.44 0.28 1004.9
20260906194547 0 302 2.6 7.0 0.00 0.44 0.28 1004.8
20260906193046 0 313 2.6 8.7 0.00 0.44 0.28 1004.6
20260906191539 0 121 4.3 7.8 0.00 0.44 0.28 1004.7
20260906190034 0 126 3.5 11.3 0.00 0.44 0.28 1004.6
20260906184530 0 109 5.2 13.0 0.00 0.44 0.28 1004.4
20260906183025 0 83 7.0 13.9 0.00 0.44 0.28 1004.6
20260906181532 0 312 0.9 6.1 0.00 0.44 0.28 1005.2
20260906180026 0 261 2.6 5.2 0.01 0.44 0.28 1005.6
20260906174512 0 53 3.5 10.4 0.01 0.44 0.28 1005.8
20260906173007 0 67 7.8 16.5 0.01 0.44 0.28 1005.4
20260906171503 0 298 11.3 20.9 0.00 0.43 0.27 1007.4
20260906170117 0 312 0.9 4.3 0.02 0.43 0.27 1007.0
20260906164557 0 269 0.0 6.1 0.04 0.43 0.27 1007.0
20260906163056 0 246 3.5 6.1 0.04 0.43 0.27 1006.7
20260906161546 0 267 0.9 4.3 0.04 0.43 0.27 1006.4
20260906160050 0 301 1.7 8.7 0.02 0.41 0.25 1006.9
20260906154536 0 311 3.5 11.3 0.08 0.39 0.23 1006.9
20260906153037 0 278 5.2 11.3 0.22 0.39 0.23 1007.0
20260906151527 0 338 7.0 17.4 0.23 0.39 0.23 1007.3
20260906150026 0 350 9.6 16.5 0.23 0.39 0.23 1007.9
20260906144521 0 323 7.8 15.6 0.15 0.32 0.15 1008.8
20260906143014 0 292 7.0 13.0 0.00 0.17 0.00 1008.0
20260906141516 0 63 8.7 17.4 0.00 0.17 0.00 1007.0
20260906140005 0 88 13.0 24.3 0.00 0.17 0.00 1006.6
20260906134502 0 72 11.3 19.1 0.00 0.23 0.00 1006.6
20260906133117 0 96 9.6 19.1 0.00 0.23 0.00 1006.7
20260906131552 0 90 7.0 16.5 0.00 0.23 0.00 1006.5
20260906130104 0 54 9.6 19.1 0.00 0.23 0.00 1006.5
20260906124544 0 42 8.7 15.6 0.00 0.23 0.00 1006.5
20260906123040 0 54 7.0 18.2 0.00 0.23 0.00 1007.0
20260906121537 0 51 11.3 20.0 0.00 0.23 0.00 1006.8
20260906120032 0 61 12.2 19.1 0.00 0.23 0.00 1006.7
20260906114541 0 80 8.7 13.9 0.00 0.23 0.00 1007.2
20260906113024 0 45 7.8 17.4 0.00 0.23 0.00 1006.8
20260906111540 0 81 10.4 17.4 0.00 0.23 0.03 1006.5
20260906110032 0 54 10.4 16.5 0.00 0.23 0.03 1006.5
20260906104527 0 133 4.3 11.3 0.00 0.23 0.03 1006.9
20260906103022 0 332 6.1 15.6 0.00 0.23 0.03 1006.9
20260906101522 0 28 8.7 17.4 0.00 0.23 0.03 1006.7
20260906100021 0 76 9.6 19.1 0.00 0.23 0.03 1006.7
20260906094508 0 14 7.0 13.0 0.00 0.23 0.03 1006.9
20260906093005 0 63 6.1 11.3 0.00 0.23 0.03 1007.2
20260906091601 0 250 9.6 20.0 0.00 0.23 0.03 1008.5
20260906090057 0 328 7.0 16.5 0.00 0.23 0.03 1008.4
20260906084552 0 22 7.0 21.7 0.00 0.23 0.03 1007.8
20260906083051 0 61 9.6 18.2 0.00 0.23 0.03 1007.2
20260906081542 0 38 5.2 16.5 0.00 0.23 0.03 1008.1
20260906080040 0 334 6.1 15.6 0.00 0.23 0.03 1008.0
20260906074535 0 55 11.3 19.1 0.00 0.23 0.03 1007.7
20260906073031 0 313 4.3 13.0 0.00 0.23 0.03 1008.4
20260906071524 0 329 6.1 12.2 0.00 0.23 0.03 1009.0
20260906070019 0 345 7.0 13.9 0.03 0.23 0.03 1008.8
20260906064515 0 11 11.3 20.9 0.03 0.23 0.03 1009.1
20260906063014 0 5 6.1 12.2 0.03 0.23 0.03 1009.6
20260906061507 0 56 3.5 10.4 0.03 0.23 0.03 1009.5
20260906060002 0 30 5.2 16.5 0.05 0.20 0.20 1009.3
20260906054605 0 48 7.0 13.9 0.05 0.20 0.20 1009.0
20260906053059 0 59 6.1 11.3 0.05 0.20 0.20 1009.2
20260906051607 0 34 2.6 13.9 0.05 0.20 0.20 1009.2
20260906050046 0 309 3.5 9.6 0.00 0.15 0.15 1010.3
20260906044549 0 67 7.8 19.1 0.03 0.15 0.15 1008.6
20260906043035 0 84 7.8 13.0 0.08 0.15 0.15 1008.2
20260906041531 0 59 7.0 15.6 0.08 0.15 0.15 1008.6
20260906040046 0 202 0.0 16.5 0.08 0.15 0.15 1008.7
20260906034520 0 302 5.2 9.6 0.05 0.12 0.12 1010.3
20260906033034 0 271 1.7 11.3 0.00 0.07 0.07 1009.5
20260906031515 0 48 8.7 15.6 0.00 0.07 0.07 1008.1
20260906030014 0 57 6.1 13.0 0.00 0.07 0.07 1007.8
20260906024514 0 92 4.3 9.6 0.00 0.07 0.07 1007.5
20260906023014 0 309 1.7 6.1 0.00 0.07 0.07 1007.4
20260906021514 0 278 2.6 4.3 0.00 0.07 0.07 1007.5
20260906020012 0 336 0.9 3.5 0.00 0.07 0.07 1007.5
20260906014513 0 51 0.0 5.2 0.00 0.07 0.07 1007.7
20260906013012 0 67 3.5 7.0 0.00 0.07 0.07 1007.3
20260906011515 0 63 5.2 8.7 0.00 0.07 0.07 1007.5
20260906010014 0 86 5.2 8.7 0.00 0.07 0.07 1007.6
20260906004505 0 72 3.5 7.0 0.00 0.07 0.07 1007.7
20260906003001 0 54 0.9 5.2 0.00 0.07 0.07 1007.8
20260906001607 0 90 3.5 11.3 0.00 0.07 0.07 1007.7
20260906000056 0 313 6.1 13.0 0.00 0.07 0.07 1007.8
20260905234555 0 325 7.0 13.0 0.00 0.07 0.07 1008.0
20260905233101 0 309 5.2 10.4 0.00 0.07 0.07 1007.8